Wind_Speed
14 15 14 15 15 14 14 13 13 14 15 16 16 16 18 18 18 16 17 17 18 18 18 19 20 20 20 21 22 21 22 22 22 22 22 23 23 23 23 23 24 24 25 26
12 12 14 16 15 17 15 15 15 16 16 16 15 16 17 18 17 16 17 17 18 18 18 19 20 20 21 22 22 21 21 21 21 22 22 23 23 23 23 24 25 25 26 26
11 11 13 14 15 16 17 18 16 15 15 16 15 15 15 17 16 15 16 17 19 20 19 19 20 21 21 21 21 21 22 22 22 22 23 24 24 25 25 25 26 26 26 27
11 13 15 15 15 15 15 16 17 15 15 15 14 17 17 18 18 17 17 17 18 20 20 19 19 20 19 19 19 21 22 23 23 24 24 25 25 24 25 26 26 27 27 27
11 13 14 14 14 13 14 15 14 14 16 17 16 17 18 17 18 17 17 17 18 19 20 19 20 20 19 20 20 21 23 23 23 24 24 24 25 25 26 27 27 28 28 28
13 13 13 13 14 14 15 14 13 14 16 18 16 18 18 18 18 19 19 18 18 20 20 20 20 20 19 20 21 22 23 23 23 24 25 25 26 27 28 28 28 28 28 28
10 12 14 14 14 14 13 12 14 16 17 18 16 18 19 16 17 19 20 21 21 20 19 20 20 20 19 20 21 22 22 24 24 25 26 26 27 27 28 28 28 29 29 29
14 14 14 14 14 14 13 14 15 16 16 15 14 16 17 18 19 19 20 21 21 20 20 20 21 20 19 19 21 22 23 23 24 25 25 26 26 26 27 28 28 28 28 28
14 13 12 14 14 14 14 15 14 15 14 14 14 16 18 19 21 21 22 21 21 20 20 21 21 21 21 20 21 22 23 24 24 25 25 26 26 27 27 27 28 28 28 28
10 11 12 12 15 15 15 14 14 15 14 15 17 16 18 20 21 22 23 21 21 21 21 21 21 21 21 22 22 23 23 24 24 24 25 26 26 26 27 27 28 28 27 27
12 12 13 13 13 13 15 14 15 16 15 15 18 18 20 20 20 21 22 22 21 21 21 21 21 22 22 22 23 25 25 25 24 25 25 25 26 26 27 27 27 26 26 27
12 13 13 14 12 12 15 14 16 17 17 16 18 20 20 21 20 21 21 20 20 22 22 22 22 22 21 22 23 24 24 25 25 25 25 25 25 25 25 25 25 25 24 24
13 14 13 12 13 13 14 14 14 16 17 17 19 21 22 21 20 20 21 21 21 22 23 22 22 22 22 23 24 24 23 24 25 24 24 25 24 24 24 23 23 23 21 21
14 14 12 11 11 12 13 13 14 15 17 18 19 21 22 21 21 21 19 20 21 22 22 21 21 22 22 23 23 23 24 24 23 23 23 23 22 22 21 21 21 20 19 19
14 13 12 12 11 11 12 12 14 15 16 17 19 20 19 19 19 19 17 19 19 20 20 21 21 21 22 22 22 22 23 22 21 21 20 20 20 20 19 18 17 17 17 17
13 12 11 11 12 12 12 13 15 15 16 17 19 20 19 19 19 18 18 19 19 19 20 21 22 21 21 21 21 21 20 20 19 19 18 18 18 17 17 16 16 16 16 15
12 11 10 10 10 12 13 13 14 16 16 17 19 19 19 18 18 18 17 18 19 19 20 20 21 20 19 19 19 19 19 18 18 18 17 17 16 15 15 14 14 14 15 14
11 11 10 10 9 11 12 12 13 15 17 17 19 19 17 18 18 18 18 18 18 17 18 19 19 18 17 17 17 18 18 17 17 16 15 15 14 14 14 13 13 13 14 12
11 10 9 9 10 11 11 11 12 14 16 16 17 15 15 17 17 17 18 17 16 17 17 17 17 16 17 17 16 16 16 16 16 14 13 13 12 12 12 11 11 11 11 11
10 10 9 9 10 11 11 12 13 14 15 14 15 14 15 16 17 17 17 17 16 17 16 16 16 15 15 15 15 14 14 14 13 12 12 11 11 11 10 10 10 9 9 10
9 9 9 9 11 12 10 12 13 13 14 13 13 13 14 15 16 16 16 15 15 15 15 14 14 14 14 13 13 12 11 11 11 11 10 10 9 9 9 8 8 8 8 8
9 9 10 11 12 11 11 13 13 13 13 13 13 14 14 14 15 15 14 14 13 13 13 12 12 11 11 11 10 8 9 9 9 9 8 7 7 8 8 7 7 8 8 8
8 8 9 10 11 11 11 11 11 11 11 12 12 12 13 13 14 13 12 13 12 12 10 9 9 9 9 9 7 6 7 8 7 6 6 6 6 7 8 7 7 7 8 8
9 9 10 10 10 10 10 10 10 9 10 10 10 11 12 12 11 11 11 11 10 9 8 8 7 7 7 7 7 7 7 6 6 5 5 5 6 7 7 7 7 7 8 7
8 9 10 9 9 9 9 9 9 9 9 9 10 10 10 10 10 9 9 9 8 8 7 6 6 6 6 6 7 6 5 5 5 5 5 5 5 6 7 7 7 7 7 8
8 9 9 8 8 9 8 8 8 8 8 8 8 9 9 9 8 8 7 7 7 7 6 5 5 6 6 6 6 5 5 4 4 4 4 4 5 6 6 7 8 8 8 8
Wind_Direction
195 199 206 212 210 205 202 211 218 225 238 249 250 246 251 260 263 266 274 279 280 281 281 283 285 286 287 286 285 285 288 286 283 282 279 278 279 281 281 282 283 283 282 281
196 204 208 208 211 209 208 216 219 225 239 246 245 248 256 264 266 269 275 278 284 285 285 284 284 286 287 286 284 283 285 287 286 284 284 282 282 281 283 287 287 286 285 284
204 214 214 211 209 204 213 220 221 221 237 245 248 253 255 263 265 271 276 283 285 285 287 286 285 286 286 284 284 287 288 289 289 289 289 286 284 284 285 286 286 285 286 286
208 217 218 215 209 209 213 224 229 226 228 242 252 259 261 265 272 269 273 283 284 286 288 290 289 290 289 289 287 288 289 289 291 290 289 287 286 286 286 286 286 285 286 286
216 220 214 213 215 216 219 219 222 229 238 242 249 257 260 265 273 277 277 282 284 286 290 292 292 291 289 289 289 288 288 289 292 292 289 288 287 287 286 285 285 284 285 285
212 217 215 216 218 222 224 225 226 231 242 247 255 260 261 263 271 276 282 287 289 290 292 292 292 292 289 289 288 288 289 289 291 291 291 290 290 288 287 286 286 285 284 285
222 223 223 221 221 222 222 223 233 240 248 254 257 260 269 270 273 277 281 286 290 291 294 298 296 295 291 291 290 288 291 291 292 292 292 292 292 291 290 288 287 286 286 286
216 222 224 226 227 227 230 230 239 250 257 262 259 266 274 280 279 277 280 286 288 287 293 296 297 299 296 295 293 292 293 294 297 297 295 292 293 294 293 290 287 287 287 287
224 218 224 228 231 231 237 242 247 260 267 270 262 264 271 279 277 279 281 285 286 287 290 291 295 297 298 298 296 296 299 298 298 298 297 294 294 295 293 292 290 289 287 287
237 218 218 231 231 230 232 241 245 254 263 266 263 258 262 271 274 281 285 289 289 289 289 291 293 296 297 298 301 302 301 299 298 297 297 296 295 295 294 292 293 291 289 288
231 236 226 231 238 241 239 239 247 256 256 263 269 270 271 270 273 280 285 289 289 290 291 292 292 293 296 298 300 300 300 300 298 298 299 298 297 297 296 294 294 293 292 292
231 232 240 240 235 239 245 243 247 255 259 262 267 272 276 278 278 280 283 286 288 289 290 291 293 293 296 297 298 300 301 302 302 301 300 299 298 298 298 297 298 299 297 295
232 232 241 244 238 237 246 244 248 259 263 265 269 275 278 279 276 280 282 284 286 287 288 291 294 296 296 297 298 300 303 305 304 301 301 301 301 301 301 301 301 303 303 299
233 237 244 253 257 253 254 250 250 258 262 265 268 274 277 279 278 281 283 282 283 286 290 292 293 295 295 297 299 300 303 305 304 303 303 304 303 304 304 303 303 305 305 303
238 242 244 248 255 256 253 254 257 262 263 267 270 273 275 280 280 283 281 282 284 286 290 292 293 295 296 297 299 301 303 304 305 306 307 308 307 306 306 305 305 307 308 309
248 247 247 245 251 254 256 257 258 261 262 264 269 273 278 280 280 284 285 286 286 288 290 292 294 296 296 297 299 303 304 307 308 308 308 310 311 310 307 307 307 308 309 311
253 254 256 255 251 254 254 258 263 265 264 266 270 274 277 279 280 283 285 286 288 289 292 294 295 297 297 298 301 304 307 307 309 310 309 310 312 311 309 309 311 311 313 312
249 248 251 252 257 258 264 265 265 269 274 273 274 277 281 281 281 287 287 288 289 292 296 298 297 297 297 300 304 305 304 305 307 310 311 309 311 311 311 313 316 317 319 319
243 239 247 257 259 263 268 270 274 274 274 275 277 281 283 285 288 289 290 293 296 298 302 303 302 302 302 303 304 304 303 303 305 308 311 312 313 315 318 318 322 324 326 327
242 240 246 252 258 261 267 271 275 278 279 279 282 286 285 288 292 293 293 295 298 302 304 305 305 306 305 305 306 305 307 305 308 311 314 317 318 322 328 332 334 335 337 337
240 246 251 261 267 271 273 280 284 282 284 285 284 288 290 291 293 295 298 301 302 302 304 305 306 307 308 309 309 311 315 316 316 319 322 324 324 327 329 335 338 339 343 348
246 255 259 264 268 278 288 286 282 285 287 287 288 291 293 294 297 299 302 304 305 305 304 304 306 310 314 316 317 319 328 330 328 327 330 338 343 347 346 342 350 353 355 358
251 260 266 270 271 279 285 288 286 289 290 287 289 294 296 298 297 298 301 304 307 308 308 309 310 316 322 325 327 332 334 339 341 340 349 354 351 356 5 8 7 13 10 8
261 264 267 275 285 288 288 286 288 292 294 296 294 296 301 306 307 306 304 305 309 310 310 313 320 325 326 328 332 337 339 344 348 349 353 356 356 360 11 20 25 24 20 19
264 265 275 282 288 292 293 293 295 295 297 301 301 297 305 313 313 310 309 308 309 310 310 315 324 329 330 336 342 345 349 351 359 3 2 9 15 16 19 24 27 24 23 25
266 273 277 280 287 293 295 298 303 303 303 307 308 305 305 313 317 317 318 320 317 314 314 321 328 330 334 339 346 357 0 360 6 14 17 23 24 26 26 27 30 33 36 39
Height
5827 5831 5834 5838 5841 5845 5848 5850 5853 5856 5856 5857 5858 5858 5858 5857 5857 5857 5858 5858 5858 5857 5856 5856 5855 5854 5853 5852 5851 5850 5849 5847 5846 5846 5845 5845 5844 5843 5843 5842 5842 5841 5840 5839
5828 5831 5834 5837 5840 5843 5846 5849 5851 5854 5854 5855 5855 5855 5855 5854 5853 5854 5855 5854 5854 5854 5853 5852 5851 5850 5849 5848 5847 5846 5845 5843 5842 5841 5841 5840 5839 5838 5838 5837 5836 5835 5834 5832
5827 5832 5833 5835 5838 5840 5844 5847 5849 5851 5853 5852 5852 5853 5852 5852 5850 5851 5851 5850 5850 5850 5849 5848 5847 5846 5845 5843 5842 5842 5841 5839 5838 5837 5836 5835 5834 5833 5832 5831 5830 5829 5827 5826
5827 5830 5832 5834 5837 5839 5842 5845 5847 5848 5850 5850 5851 5850 5849 5849 5848 5847 5847 5847 5846 5845 5845 5844 5843 5841 5840 5839 5838 5837 5836 5835 5834 5832 5831 5829 5828 5827 5826 5825 5824 5822 5821 5819
5828 5829 5831 5833 5836 5838 5840 5843 5844 5846 5846 5847 5847 5847 5847 5845 5845 5844 5843 5843 5842 5841 5841 5839 5838 5836 5835 5835 5834 5832 5831 5830 5828 5827 5825 5824 5822 5821 5820 5819 5817 5816 5814 5813
5826 5828 5830 5832 5833 5835 5838 5840 5841 5842 5843 5843 5844 5844 5843 5841 5842 5841 5840 5840 5839 5838 5837 5835 5834 5832 5831 5830 5829 5828 5827 5825 5823 5821 5820 5818 5817 5815 5813 5812 5810 5809 5807 5806
5825 5827 5828 5830 5832 5834 5836 5838 5839 5840 5840 5839 5841 5840 5840 5838 5839 5838 5837 5837 5836 5835 5833 5831 5829 5828 5826 5825 5824 5823 5821 5820 5818 5816 5814 5812 5810 5808 5806 5805 5803 5802 5800 5799
5822 5825 5827 5828 5830 5832 5833 5836 5837 5837 5837 5837 5838 5837 5836 5835 5834 5834 5834 5833 5832 5830 5829 5827 5825 5824 5820 5820 5820 5818 5816 5815 5813 5810 5808 5806 5804 5802 5799 5798 5796 5794 5793 5791
5820 5823 5825 5826 5828 5830 5831 5832 5834 5834 5833 5833 5834 5834 5833 5832 5831 5831 5830 5828 5827 5826 5825 5823 5822 5820 5818 5816 5815 5814 5811 5809 5807 5805 5802 5800 5798 5795 5793 5791 5789 5787 5785 5784
5819 5820 5822 5824 5826 5827 5829 5830 5831 5831 5830 5831 5831 5830 5828 5827 5828 5827 5825 5825 5824 5823 5821 5820 5818 5816 5814 5812 5810 5808 5806 5804 5801 5799 5796 5793 5791 5789 5786 5784 5782 5779 5777 5776
5817 5818 5820 5821 5822 5824 5825 5827 5827 5827 5828 5828 5827 5828 5823 5822 5822 5823 5821 5821 5820 5819 5817 5816 5814 5811 5810 5808 5805 5803 5801 5798 5795 5793 5790 5787 5785 5782 5780 5778 5775 5773 5771 5769
5815 5816 5817 5819 5820 5821 5822 5823 5824 5824 5824 5824 5823 5823 5818 5818 5817 5818 5817 5816 5815 5814 5813 5811 5808 5806 5804 5802 5800 5798 5795 5792 5789 5786 5784 5781 5779 5776 5774 5771 5769 5767 5764 5762
5813 5814 5815 5816 5818 5818 5818 5819 5820 5821 5821 5820 5819 5820 5815 5814 5813 5813 5812 5812 5811 5809 5808 5806 5804 5802 5799 5798 5795 5793 5790 5787 5784 5781 5779 5776 5773 5770 5768 5765 5763 5761 5758 5757
5811 5812 5814 5815 5814 5815 5816 5816 5817 5818 5817 5816 5815 5814 5812 5810 5809 5808 5807 5807 5806 5804 5803 5801 5799 5797 5795 5793 5790 5788 5785 5782 5779 5777 5774 5771 5768 5765 5763 5760 5758 5756 5754 5752
5808 5809 5810 5811 5812 5812 5813 5813 5814 5814 5813 5813 5812 5809 5808 5806 5805 5804 5802 5802 5801 5800 5798 5796 5794 5792 5790 5788 5785 5783 5780 5777 5774 5772 5769 5767 5764 5761 5759 5756 5754 5752 5750 5748
5805 5807 5807 5808 5809 5809 5810 5810 5810 5810 5810 5810 5808 5806 5804 5803 5802 5800 5798 5797 5797 5795 5794 5792 5789 5787 5785 5782 5780 5778 5775 5772 5770 5768 5765 5763 5760 5757 5755 5753 5751 5749 5747 5745
5803 5804 5805 5806 5806 5807 5807 5808 5807 5807 5806 5806 5804 5803 5800 5799 5797 5796 5794 5793 5792 5790 5788 5787 5784 5782 5780 5777 5775 5773 5770 5768 5766 5764 5761 5759 5757 5754 5752 5750 5748 5746 5745 5743
5801 5802 5802 5803 5804 5804 5806 5805 5804 5804 5802 5801 5800 5798 5796 5795 5793 5792 5791 5788 5786 5785 5784 5782 5779 5777 5775 5773 5771 5769 5767 5765 5762 5760 5758 5756 5754 5752 5750 5748 5746 5744 5742 5740
5798 5799 5799 5800 5800 5801 5802 5801 5801 5800 5799 5797 5795 5794 5793 5791 5789 5788 5786 5784 5782 5781 5779 5777 5774 5772 5771 5769 5767 5765 5763 5761 5759 5757 5755 5753 5752 5750 5748 5746 5744 5742 5740 5739
5797 5797 5798 5797 5797 5798 5799 5798 5797 5797 5795 5793 5792 5791 5790 5788 5786 5785 5783 5781 5779 5777 5775 5773 5771 5769 5767 5765 5763 5761 5759 5758 5756 5755 5753 5751 5750 5748 5746 5744 5743 5741 5739 5737
5795 5795 5795 5795 5794 5793 5794 5794 5794 5794 5792 5789 5788 5787 5786 5785 5783 5781 5779 5777 5775 5773 5771 5769 5768 5766 5764 5762 5760 5759 5757 5756 5754 5753 5751 5750 5748 5747 5745 5744 5742 5740 5739 5737
5793 5793 5793 5793 5792 5793 5791 5791 5790 5790 5788 5787 5786 5784 5783 5781 5779 5777 5775 5774 5772 5770 5768 5766 5764 5763 5762 5760 5758 5757 5755 5754 5753 5751 5750 5749 5747 5746 5744 5743 5742 5740 5739 5737
5792 5792 5791 5791 5792 5790 5789 5788 5787 5786 5785 5784 5783 5781 5780 5778 5776 5774 5772 5771 5769 5768 5766 5764 5762 5761 5760 5758 5757 5756 5755 5753 5752 5751 5749 5748 5747 5746 5744 5743 5742 5740 5739 5738
5790 5790 5789 5788 5787 5787 5786 5785 5784 5783 5782 5781 5779 5778 5776 5775 5773 5771 5769 5768 5767 5765 5764 5762 5761 5760 5759 5757 5756 5755 5754 5753 5752 5751 5750 5748 5747 5746 5745 5743 5742 5741 5740 5739
5788 5788 5787 5786 5786 5785 5784 5783 5782 5781 5780 5778 5776 5775 5773 5772 5770 5769 5767 5766 5765 5764 5763 5761 5760 5759 5758 5757 5756 5755 5754 5753 5752 5751 5750 5749 5748 5747 5746 5745 5743 5742 5741 5740
5787 5786 5785 5785 5784 5783 5782 5781 5779 5778 5777 5775 5774 5773 5771 5770 5768 5767 5766 5764 5763 5762 5761 5760 5759 5759 5758 5757 5756 5755 5754 5753 5752 5751 5750 5749 5749 5748 5747 5746 5744 5743 5742 5741